This is the latest recevied weather packets stored in our database for station/object K1KOF. If no packets are shown the sender has not sent any weather packets the latest 10 day(s).
| Time | Temp. | Humidity | Pressure | Rain* | Wind** | Luminosity | Snow |
|---|---|---|---|---|---|---|---|
| 1777860064 | 11.67° C | 92% | 1027.4 hPa | 0 mm | - | 0 W/m² | - |
| 1777859760 | 11.67° C | 91% | 1027.5 hPa | 0 mm | - | 0 W/m² | - |
| 1777859456 | 11.67° C | 91% | 1027.4 hPa | 0 mm | - | 0 W/m² | - |
| 1777859152 | 11.67° C | 90% | 1027 hPa | 0 mm | - | 0 W/m² | - |
| 1777858850 | 11.67° C | 89% | 1027.3 hPa | 0 mm | - | 0 W/m² | - |
| 1777858547 | 12.22° C | 89% | 1027.2 hPa | 0 mm | - | 0 W/m² | - |
| 1777858244 | 12.22° C | 88% | 1027.1 hPa | 0 mm | - | 0 W/m² | - |
| 1777857941 | 12.22° C | 87% | 1027.1 hPa | 0 mm | - | 0 W/m² | - |
| 1777857639 | 12.22° C | 87% | 1027.3 hPa | 0 mm | - | 0 W/m² | - |
| 1777857336 | 12.78° C | 86% | 1027 hPa | 0 mm | - | 0 W/m² | - |
| 1777857032 | 12.78° C | 86% | 1027 hPa | 0 mm | - | 0 W/m² | - |
| 1777856728 | 12.78° C | 85% | 1027 hPa | 0 mm | - | 0 W/m² | - |
| 1777856424 | 12.78° C | 83% | 1027 hPa | 0 mm | - | 0 W/m² | - |
| 1777856121 | 13.33° C | 82% | 1026.9 hPa | 0 mm | - | 0 W/m² | - |
| 1777855818 | 13.89° C | 80% | 1026.6 hPa | 0 mm | - | 0 W/m² | - |
| 1777855516 | 13.89° C | 79% | 1026.9 hPa | 0 mm | - | 0 W/m² | - |
| 1777855213 | 14.44° C | 77% | 1026.7 hPa | 0 mm | - | 0 W/m² | - |
| 1777854909 | 15° C | 75% | 1026.7 hPa | 0 mm | - | 0 W/m² | - |
| 1777854606 | 15° C | 73% | 1026.7 hPa | 0 mm | - | 0 W/m² | - |
| 1777854303 | 15.56° C | 70% | 1026.6 hPa | 0 mm | - | 0 W/m² | - |
| 1777854000 | 16.11° C | 66% | 1026.6 hPa | 0 mm | - | 0 W/m² | - |
| 1777853697 | 16.67° C | 62% | 1026.5 hPa | 0 mm | - | 0 W/m² | - |
| 1777853394 | 17.22° C | 61% | 1026.5 hPa | 0 mm | - | 1 W/m² | - |
| 1777853091 | 17.78° C | 53% | 1026.6 hPa | 0 mm | - | 4 W/m² | - |
| 1777852788 | 17.78° C | 52% | 1026.5 hPa | 0 mm | - | 6 W/m² | - |
* Rain latest hour (hover to see other rain measurements)
** Current wind speed in m/s (hover to see current wind gust speed)